�N����,����,�~����,�C��,���x,�C��,����,���ϕ���,�ő�u�ԕ���,�ő厞����,���˗�,�I�_���x,�n�����x,�ő啗���N��,DTYPE
"20/07/26","00:10",0.0,23.5,95.4,1006.2,303.8,1.0,1.6,324.0,0.00,22.8,24.7,"00:07:04",1
"20/07/26","00:20",0.0,23.5,95.5,1005.7,322.6,0.8,1.2,320.2,0.00,22.8,24.7,"00:10:32",1
"20/07/26","00:30",0.0,23.4,95.5,1005.7,318.8,0.7,1.1,343.9,0.00,22.7,24.7,"00:24:08",1
"20/07/26","00:40",0.0,23.4,95.6,1006.0,292.9,0.8,1.1,320.5,0.00,22.7,24.6,"00:30:32",1
"20/07/26","00:50",0.0,23.4,95.6,1005.7,326.4,0.7,1.0,348.2,0.00,22.7,24.8,"00:43:44",1
"20/07/26","01:00",0.0,23.4,95.6,1006.2,299.8,0.6,0.9,348.5,0.00,22.7,24.8,"00:50:16",1
"20/07/26","01:10",0.0,23.4,95.7,1006.2,275.5,0.3,0.8,284.3,0.00,22.7,24.6,"01:00:32",1
"20/07/26","01:20",0.0,23.4,95.7,1006.2,221.4,0.1,0.4,198.1,0.00,22.7,24.6,"01:12:24",1
"20/07/26","01:30",0.2,23.5,95.7,1006.0,299.2,0.5,1.0,242.3,0.00,22.8,24.7,"01:27:12",1
"20/07/26","01:40",0.0,23.6,95.7,1006.0,349.0,0.6,1.1,340.7,0.00,22.9,24.6,"01:31:12",1
"20/07/26","01:50",0.0,23.5,95.7,1005.7,313.7,0.5,0.9,270.8,0.00,22.8,24.4,"01:48:24",1
"20/07/26","02:00",0.0,23.5,95.8,1006.2,310.1,0.6,1.1,327.3,0.00,22.8,24.7,"01:51:28",1
"20/07/26","02:10",0.0,23.5,95.8,1006.4,337.1,0.6,0.9,297.1,0.00,22.8,24.6,"02:00:16",1
"20/07/26","02:20",0.0,23.6,95.8,1006.2,15.8,0.7,1.7,14.3,0.00,22.9,24.7,"02:13:36",1
"20/07/26","02:30",0.0,23.6,95.9,1006.0,355.3,0.7,1.2,32.1,0.00,22.9,24.5,"02:21:36",1
"20/07/26","02:40",0.0,23.6,95.9,1006.0,357.4,0.6,1.4,347.3,0.00,22.9,24.8,"02:38:48",1
"20/07/26","02:50",0.0,23.6,95.9,1005.7,359.4,0.8,1.7,353.1,0.00,22.9,24.7,"02:46:32",1
"20/07/26","03:00",0.0,23.6,95.9,1005.5,320.3,0.8,1.7,355.6,0.00,22.9,24.6,"02:52:48",1
"20/07/26","03:10",0.0,23.6,96.0,1005.7,226.3,0.3,1.3,304.4,0.00,23.0,24.5,"03:00:48",1
"20/07/26","03:20",0.0,23.6,96.0,1005.2,314.2,0.7,1.2,345.9,0.00,23.0,24.6,"03:14:48",1
"20/07/26","03:30",0.0,23.6,96.0,1005.2,286.7,0.3,0.9,330.4,0.00,23.0,24.5,"03:23:28",1
"20/07/26","03:40",0.0,23.7,96.0,1005.5,27.1,0.6,1.2,353.9,0.00,23.1,24.5,"03:37:12",1
"20/07/26","03:50",0.0,23.7,96.0,1005.5,351.7,0.7,1.2,345.4,0.00,23.1,24.6,"03:40:56",1
"20/07/26","04:00",0.0,23.7,96.1,1005.2,304.3,0.6,1.6,215.6,0.00,23.1,24.5,"03:58:56",1
"20/07/26","04:10",0.0,23.7,96.1,1006.0,270.6,0.6,1.2,309.0,0.00,23.1,24.5,"04:01:44",1
"20/07/26","04:20",0.0,23.7,96.1,1006.2,342.8,0.3,0.9,237.3,0.00,23.1,24.8,"04:10:24",1
"20/07/26","04:30",0.0,23.7,96.1,1006.2,281.7,0.3,0.6,307.7,0.00,23.1,24.5,"04:23:36",1
"20/07/26","04:40",0.0,23.7,96.1,1006.2,242.7,0.1,0.4,195.2,0.00,23.1,24.7,"04:32:56",1
"20/07/26","04:50",0.0,23.6,96.1,1006.2,152.6,0.2,0.9,158.6,0.00,23.0,24.7,"04:48:00",1
"20/07/26","05:00",0.0,23.5,96.2,1006.0,195.1,0.3,1.3,123.7,0.00,22.9,24.5,"04:51:04",1
"20/07/26","05:10",0.0,23.6,96.2,1006.2,319.9,0.7,1.1,325.0,0.00,23.0,24.6,"05:05:52",1
"20/07/26","05:20",0.0,23.6,96.2,1006.4,336.0,0.8,1.2,328.5,0.00,23.0,24.6,"05:12:48",1
"20/07/26","05:30",0.0,23.6,96.2,1006.2,335.5,1.1,1.7,330.7,0.00,23.0,24.5,"05:28:24",1
"20/07/26","05:40",0.0,23.6,96.3,1006.2,332.5,0.5,1.6,323.4,0.00,23.0,24.6,"05:30:16",1
"20/07/26","05:50",0.2,23.7,96.3,1006.7,315.4,0.7,1.3,343.2,0.00,23.1,24.5,"05:46:24",1
"20/07/26","06:00",0.0,23.6,96.3,1006.7,297.5,0.7,1.3,341.8,0.00,23.0,24.4,"05:51:44",1
"20/07/26","06:10",0.0,23.6,96.3,1006.4,281.2,0.6,1.2,311.4,0.00,23.0,24.4,"06:01:04",1
"20/07/26","06:20",0.0,23.6,96.3,1006.9,340.6,0.0,0.5,324.4,0.00,23.0,24.3,"06:10:48",1
"20/07/26","06:30",0.0,23.7,96.3,1006.4,324.3,1.2,1.7,332.4,0.00,23.1,24.5,"06:24:56",1
"20/07/26","06:40",0.0,23.7,96.4,1006.9,271.2,0.8,1.4,310.4,0.00,23.1,24.6,"06:32:00",1
"20/07/26","06:50",0.0,23.7,96.4,1006.7,294.5,0.8,1.7,326.3,0.01,23.1,24.5,"06:47:12",1
"20/07/26","07:00",0.0,23.7,96.5,1006.7,288.1,1.0,1.6,339.0,0.01,23.1,24.5,"06:56:32",1
"20/07/26","07:10",0.0,23.8,96.5,1006.9,273.9,0.7,1.3,293.6,0.02,23.2,24.6,"07:09:28",1
"20/07/26","07:20",0.0,23.9,96.5,1006.7,265.0,0.8,1.2,274.5,0.03,23.3,24.5,"07:16:56",1
"20/07/26","07:30",0.0,24.2,96.5,1006.4,293.1,0.6,1.2,332.6,0.06,23.6,24.7,"07:28:08",1
"20/07/26","07:40",0.0,24.4,96.4,1006.7,283.9,0.7,1.3,345.5,0.05,23.8,24.5,"07:30:24",1
"20/07/26","07:50",0.0,24.8,96.4,1007.4,293.1,0.3,0.8,302.6,0.07,24.2,24.7,"07:44:40",1
"20/07/26","08:00",0.0,25.0,96.3,1007.1,291.3,0.3,0.9,235.8,0.08,24.4,24.6,"07:54:56",1
"20/07/26","08:10",0.0,24.8,96.3,1007.1,106.8,0.6,1.3,116.4,0.07,24.2,24.7,"08:04:24",1
"20/07/26","08:20",0.0,25.1,96.4,1007.4,28.3,0.5,1.0,6.1,0.07,24.5,24.7,"08:13:12",1
"20/07/26","08:30",0.0,25.2,96.2,1007.6,59.9,0.3,1.0,9.1,0.10,24.6,24.9,"08:21:04",1
"20/07/26","08:40",0.0,25.2,96.3,1007.1,109.6,0.6,1.8,108.6,0.12,24.6,24.7,"08:31:20",1
"20/07/26","08:50",0.0,25.6,96.2,1006.7,128.5,0.7,1.3,127.3,0.17,25.0,25.0,"08:46:08",1
"20/07/26","09:00",0.0,25.8,96.0,1006.9,59.8,0.6,1.8,6.7,0.18,25.2,25.0,"08:58:16",1
"20/07/26","09:10",0.0,26.5,95.7,1006.9,52.4,0.6,1.4,44.3,0.22,25.8,25.2,"09:04:32",1
"20/07/26","09:20",0.0,26.0,95.0,1006.2,24.8,0.7,1.8,4.9,0.15,25.2,25.0,"09:15:52",1
"20/07/26","09:30",0.0,25.6,94.7,1006.4,299.2,0.8,1.7,335.2,0.13,24.7,25.2,"09:24:16",1
"20/07/26","09:40",0.0,26.0,94.5,1006.2,23.3,0.5,1.1,127.2,0.13,25.1,25.3,"09:37:52",1
"20/07/26","09:50",0.0,26.6,94.2,1006.2,116.2,0.6,1.7,142.1,0.23,25.6,25.7,"09:45:12",1
"20/07/26","10:00",0.0,26.5,93.5,1006.0,330.5,1.0,3.2,345.7,0.17,25.4,25.7,"09:54:08",1
"20/07/26","10:10",0.0,27.0,92.8,1006.4,225.5,0.6,1.2,221.6,0.18,25.8,25.6,"10:04:32",1
"20/07/26","10:20",0.0,27.4,91.6,1006.7,277.3,0.5,1.7,112.4,0.24,25.9,25.9,"10:15:44",1
"20/07/26","10:30",0.0,27.7,89.6,1006.4,124.0,0.8,3.1,108.6,0.21,25.9,25.7,"10:24:08",1
"20/07/26","10:40",0.0,27.8,87.9,1006.7,135.9,0.8,1.9,190.6,0.17,25.6,26.0,"10:31:52",1
"20/07/26","10:50",0.0,27.7,85.0,1006.9,171.7,1.1,2.5,191.0,0.14,25.0,25.9,"10:48:48",1
"20/07/26","11:00",0.0,28.2,83.1,1006.4,172.5,1.2,2.5,199.2,0.21,25.1,26.2,"10:51:20",1
"20/07/26","11:10",0.0,28.3,80.1,1006.7,157.2,1.1,3.1,179.4,0.26,24.6,26.2,"11:00:56",1
"20/07/26","11:20",0.0,28.7,78.5,1006.7,196.4,1.2,2.2,189.2,0.27,24.6,26.2,"11:17:44",1
"20/07/26","11:30",0.0,28.7,76.9,1006.9,195.4,1.5,3.3,213.9,0.16,24.3,26.1,"11:22:24",1
"20/07/26","11:40",0.0,28.1,78.1,1006.7,175.8,1.1,2.0,198.3,0.07,24.0,26.2,"11:36:18",1
"20/07/26","11:50",0.0,27.9,79.0,1006.0,201.3,1.7,3.4,227.4,0.09,24.0,26.1,"11:46:40",1
"20/07/26","12:00",0.0,27.8,79.5,1006.0,204.6,1.3,2.9,202.4,0.06,24.0,26.2,"11:58:00",1
"20/07/26","12:10",0.0,27.6,80.7,1005.2,206.8,1.3,3.1,212.1,0.05,24.0,26.0,"12:01:04",1
"20/07/26","12:20",0.0,27.6,81.5,1005.5,201.1,1.1,2.2,237.8,0.05,24.2,26.1,"12:17:44",1
"20/07/26","12:30",0.0,27.5,82.3,1005.7,208.9,1.6,2.6,213.0,0.05,24.3,26.2,"12:22:40",1
"20/07/26","12:40",0.0,27.4,83.3,1005.7,196.0,1.1,3.1,220.2,0.06,24.4,26.0,"12:31:12",1
"20/07/26","12:50",0.0,27.3,84.7,1006.2,195.6,1.3,2.8,197.8,0.07,24.5,26.0,"12:44:56",1
"20/07/26","13:00",0.2,27.1,85.9,1006.0,187.5,1.6,2.4,186.6,0.07,24.6,25.9,"12:53:28",1
"20/07/26","13:10",0.0,27.0,87.1,1006.0,192.5,1.3,3.3,206.7,0.09,24.7,26.1,"13:07:12",1
"20/07/26","13:20",0.2,26.8,87.9,1006.4,192.0,1.3,3.1,218.9,0.11,24.7,26.1,"13:14:32",1
"20/07/26","13:30",0.0,26.7,88.3,1006.0,169.5,1.1,2.4,155.2,0.08,24.6,26.0,"13:22:48",1
"20/07/26","13:40",0.0,26.5,88.5,1006.0,180.2,0.8,2.1,201.2,0.06,24.5,26.0,"13:31:52",1
"20/07/26","13:50",0.2,26.3,88.4,1005.5,224.5,0.8,2.4,227.9,0.08,24.3,26.0,"13:47:36",1
"20/07/26","14:00",0.0,26.4,88.7,1005.7,162.0,0.6,1.3,212.2,0.08,24.4,26.1,"13:54:32",1
"20/07/26","14:10",0.0,26.5,88.6,1005.7,165.6,0.5,1.0,208.6,0.06,24.5,26.0,"14:06:56",1
"20/07/26","14:20",0.0,26.3,88.6,1006.0,212.5,0.5,1.2,225.3,0.02,24.3,25.8,"14:12:16",1
"20/07/26","14:30",0.2,26.1,88.9,1006.2,190.6,0.6,1.4,171.8,0.00,24.2,26.0,"14:26:48",1
"20/07/26","14:40",0.8,25.9,89.1,1006.2,175.9,0.3,1.1,198.9,0.00,24.0,25.8,"14:30:48",1
"20/07/26","14:50",0.4,25.9,89.6,1006.7,195.7,0.8,2.0,227.9,0.00,24.1,26.2,"14:44:08",1
"20/07/26","15:00",0.6,25.9,90.2,1006.7,191.7,0.6,1.4,188.4,0.00,24.2,26.1,"14:52:16",1
"20/07/26","15:10",0.8,25.8,90.4,1007.1,197.7,0.8,1.8,209.5,0.00,24.1,26.1,"15:02:40",1
"20/07/26","15:20",1.4,25.7,90.7,1006.9,190.0,0.7,1.9,182.1,0.00,24.1,25.9,"15:11:44",1
"20/07/26","15:30",0.2,25.8,91.1,1006.7,182.9,0.8,2.1,200.0,0.00,24.3,26.0,"15:27:20",1
"20/07/26","15:40",0.0,25.9,91.3,1006.9,183.8,1.0,2.0,136.9,0.05,24.4,25.9,"15:34:00",1
"20/07/26","15:50",0.0,25.5,91.5,1006.7,177.8,0.7,1.7,234.0,0.00,24.1,26.1,"15:44:24",1
"20/07/26","16:00",0.6,25.3,91.7,1006.7,141.1,0.8,2.2,119.4,0.00,23.9,25.8,"15:57:12",1
"20/07/26","16:10",0.8,25.3,91.9,1006.4,286.7,0.3,1.3,223.2,0.00,23.9,25.8,"16:00:08",1
"20/07/26","16:20",0.4,25.3,92.0,1007.1,29.2,0.3,1.2,3.2,0.00,23.9,25.9,"16:11:20",1
"20/07/26","16:30",0.6,25.3,92.1,1006.9,137.6,0.6,1.7,127.5,0.00,24.0,25.6,"16:28:24",1
"20/07/26","16:40",0.2,24.9,92.3,1006.7,193.0,1.6,4.0,216.8,0.00,23.6,25.8,"16:35:44",1
"20/07/26","16:50",0.4,24.4,92.4,1007.1,185.9,2.0,6.5,208.6,0.00,23.1,25.7,"16:47:54",1
"20/07/26","17:00",0.2,24.2,92.8,1007.1,168.6,1.6,3.4,190.2,0.00,23.0,25.5,"16:50:32",1
"20/07/26","17:10",0.2,24.2,92.9,1007.1,197.1,1.0,2.0,193.2,0.00,23.0,25.6,"17:01:28",1
"20/07/26","17:20",0.2,24.1,93.0,1006.9,175.7,0.2,0.6,187.6,0.00,22.9,25.4,"17:13:04",1
"20/07/26","17:30",0.0,24.0,93.1,1006.9,221.0,0.7,1.7,225.6,0.00,22.9,25.7,"17:27:38",1
"20/07/26","17:40",0.0,24.0,93.3,1006.9,222.7,0.8,1.9,211.2,0.00,22.9,25.4,"17:38:56",1
"20/07/26","17:50",0.0,23.9,93.3,1006.7,183.2,0.2,1.2,192.9,0.00,22.8,25.5,"17:40:08",1
"20/07/26","18:00",0.0,23.8,93.4,1006.7,314.5,0.8,1.4,300.5,0.00,22.7,25.3,"17:58:00",1
"20/07/26","18:10",0.0,23.7,93.5,1007.1,263.0,0.8,1.9,258.2,0.00,22.6,25.3,"18:08:48",1
"20/07/26","18:20",0.0,23.7,93.6,1006.9,228.3,0.3,1.6,224.6,0.00,22.6,25.4,"18:10:48",1
"20/07/26","18:30",0.0,23.7,93.6,1006.9,324.6,0.7,1.4,340.9,0.00,22.6,25.2,"18:29:04",1
"20/07/26","18:40",0.0,23.7,93.7,1007.6,332.3,0.8,1.4,321.7,0.00,22.7,25.3,"18:35:36",1
"20/07/26","18:50",0.0,23.7,93.8,1007.1,353.1,0.7,1.6,345.7,0.00,22.7,25.3,"18:41:12",1
"20/07/26","19:00",0.0,23.6,93.8,1006.9,346.5,0.7,1.6,346.9,0.00,22.6,25.3,"18:58:48",1
"20/07/26","19:10",0.0,23.5,93.9,1007.1,308.6,0.5,1.4,347.6,0.00,22.5,25.1,"19:00:48",1
"20/07/26","19:20",0.0,23.4,94.0,1007.6,297.3,0.7,1.3,341.2,0.00,22.4,25.3,"19:16:48",1
"20/07/26","19:30",0.2,23.2,94.1,1007.6,267.1,0.5,0.8,291.4,0.00,22.2,25.2,"19:21:20",1
"20/07/26","19:40",0.0,23.2,94.2,1007.4,269.9,0.7,1.0,261.9,0.00,22.3,25.1,"19:34:16",1
"20/07/26","19:50",0.0,23.1,94.2,1007.4,287.2,0.6,1.0,334.0,0.00,22.2,25.2,"19:47:28",1
"20/07/26","20:00",0.0,23.1,94.3,1007.4,331.1,0.7,1.0,338.5,0.00,22.2,25.0,"19:54:40",1
"20/07/26","20:10",0.0,23.1,94.3,1007.6,313.6,0.7,1.1,356.0,0.00,22.2,25.1,"20:00:24",1
"20/07/26","20:20",0.0,23.0,94.4,1007.8,295.3,0.3,1.0,311.0,0.00,22.1,24.9,"20:10:08",1
"20/07/26","20:30",0.0,22.9,94.5,1007.8,319.6,0.5,1.2,315.3,0.00,22.0,24.9,"20:28:00",1
"20/07/26","20:40",0.0,22.8,94.5,1008.1,316.8,0.7,1.0,333.3,0.00,21.9,24.9,"20:30:08",1
"20/07/26","20:50",0.0,22.7,94.6,1008.3,287.6,0.6,0.9,271.0,0.00,21.8,24.9,"20:48:00",1
"20/07/26","21:00",0.0,22.5,94.7,1008.6,289.1,0.2,1.0,311.5,0.00,21.6,25.0,"20:50:40",1
"20/07/26","21:10",0.0,22.4,94.8,1008.3,304.5,0.5,1.0,303.1,0.00,21.6,24.7,"21:09:36",1
"20/07/26","21:20",0.0,22.4,94.8,1008.6,291.8,0.6,1.0,300.9,0.00,21.6,24.8,"21:10:32",1
"20/07/26","21:30",0.0,22.4,94.9,1008.6,308.8,0.7,1.4,340.9,0.00,21.6,24.6,"21:29:44",1
"20/07/26","21:40",0.0,22.5,94.9,1008.8,324.1,0.8,1.9,348.2,0.00,21.7,24.5,"21:31:36",1
"20/07/26","21:50",0.0,22.4,94.9,1008.8,282.6,0.5,1.2,327.7,0.00,21.6,24.7,"21:40:16",1
"20/07/26","22:00",0.0,22.3,95.1,1008.6,306.8,0.6,1.3,330.6,0.00,21.5,24.4,"21:57:44",1
"20/07/26","22:10",0.0,22.4,95.1,1008.8,334.9,0.7,1.4,330.8,0.00,21.6,24.5,"22:01:44",1
"20/07/26","22:20",0.0,22.3,95.1,1008.6,339.3,0.8,1.2,335.7,0.00,21.5,24.7,"22:16:08",1
"20/07/26","22:30",0.0,22.3,95.2,1008.8,298.2,0.7,1.1,269.5,0.00,21.5,24.5,"22:28:40",1
"20/07/26","22:40",0.0,22.3,95.3,1008.1,291.4,0.7,1.1,322.7,0.00,21.6,24.6,"22:37:52",1
"20/07/26","22:50",0.0,22.3,95.3,1008.8,276.6,0.6,1.0,275.4,0.00,21.6,24.3,"22:41:44",1
"20/07/26","23:00",0.0,22.2,95.3,1008.6,294.6,0.3,0.9,340.7,0.00,21.5,24.5,"22:52:48",1
"20/07/26","23:10",0.0,22.1,95.4,1008.8,315.8,0.7,1.0,350.8,0.00,21.4,24.4,"23:02:08",1
"20/07/26","23:20",0.0,22.2,95.5,1008.6,328.3,1.0,1.4,334.0,0.00,21.5,24.5,"23:18:48",1
"20/07/26","23:30",0.0,22.1,95.5,1008.6,325.4,0.7,1.3,340.1,0.00,21.4,24.3,"23:25:44",1
"20/07/26","23:40",0.0,22.0,95.5,1008.6,273.2,0.6,0.9,249.5,0.00,21.3,24.4,"23:35:20",1
"20/07/26","23:50",0.0,22.0,95.6,1008.6,298.7,0.6,0.9,322.2,0.00,21.3,24.3,"23:45:28",1
"20/07/26","24:00",0.0,21.9,95.6,1008.6,311.3,0.3,0.9,320.9,0.00,21.2,24.1,"23:50:08",1
